Fallon NAS, NV

4:13 AM PDT on June 28, 2017 (GMT -0700)
Fallon Naval Air Station

Weather History for KNFL - July, 2013

Change the Weather History Date:

Friday, July 19, 2013

  Actual Average Record
Temperature  
Mean Temperature 84 °F -  
Max Temperature 105 °F 91 °F 106 °F (1960)
Min Temperature 63 °F 54 °F 37 °F (1987)
Cooling Degree Days 19    
Growing Degree Days 34 (Base 50)    
Moisture  
Dew Point 28 °F    
Average Humidity 16    
Maximum Humidity 30    
Minimum Humidity 6    
Precipitation  
Precipitation 0.00 in - - ()
Sea Level Pressure  
Sea Level Pressure 29.91 in    
Wind  
Wind Speed 6 mph (WNW)    
Max Wind Speed 12 mph    
Max Gust Speed -    
Visibility 10 miles    
Events      
Averages and records for this station are not official NWS values.
T = Trace of Precipitation, MM = Missing Value Source: NWS Daily Summary

Daily Weather History Graph

Daily Weather History Graph

Search for Another Location

Airport or City:

Trip Planner

Search our weather history database for the weather conditions in past years. The results will help you decide how hot, cold, wet, or windy it might be!

Date:

Astronomy

Jul. 19, 2013 Rise Set
Actual Time 5:43 AM PDT 8:18 PM PDT
Civil Twilight 5:12 AM PDT 8:49 PM PDT
Nautical Twilight 4:33 AM PDT 9:27 PM PDT
Astronomical Twilight 3:50 AM PDT 10:10 PM PDT
Moon 5:25 PM PDT (7/19) 2:29 AM PDT (7/19)
Length of Visible Light 15h 36m
Length of Day
14h 34m
Waxing Gibbous, 87% of the Moon is Illuminated
Jul 19
Waxing Gibbous
Jul 22
Full
Jul 29
Last Quarter
Aug 6
New
Aug 14
First Quarter

Hourly Weather History & Observations

Time (PDT) Temp. Dew Point Humidity Pressure Visibility Wind Dir Wind Speed Gust Speed Precip Events Conditions
12:56 AM 75.9 °F 26.1 °F 16% 29.93 in 10.0 mi WNW 8.1 mph - N/A   Clear
1:56 AM 64.0 °F 28.0 °F 26% 29.92 in 10.0 mi SSW 3.5 mph - N/A   Clear
2:56 AM 66.0 °F 32.0 °F 28% 29.92 in 10.0 mi SSE 4.6 mph - N/A   Clear
3:56 AM 64.9 °F 28.9 °F 26% 29.93 in 10.0 mi South 4.6 mph - N/A   Clear
4:56 AM 63.0 °F 28.9 °F 28% 29.93 in 10.0 mi South 5.8 mph - N/A   Clear
5:56 AM 63.0 °F 30.9 °F 30% 29.95 in 10.0 mi South 5.8 mph - N/A   Clear
6:15 AM 64.4 °F 30.2 °F 28% 30.04 in 10.0 mi South 4.6 mph - N/A   Mostly Cloudy
6:56 AM 71.6 °F 30.2 °F 22% 29.96 in 10.0 mi Variable 3.5 mph - N/A   Mostly Cloudy
7:56 AM 78.8 °F 33.8 °F 20% 29.97 in 10.0 mi South 3.5 mph - N/A   Scattered Clouds
8:56 AM 82.4 °F 35.6 °F 19% 29.97 in 10.0 mi West 5.8 mph - N/A   Scattered Clouds
9:56 AM 87.8 °F 30.2 °F 13% 29.96 in 10.0 mi NW 6.9 mph - N/A   Mostly Cloudy
10:56 AM 91.4 °F 23.0 °F 8% 29.96 in 10.0 mi Variable 3.5 mph - N/A   Mostly Cloudy
11:56 AM 93.2 °F 23.0 °F 8% 29.95 in 10.0 mi Variable 4.6 mph - N/A   Mostly Cloudy
12:56 PM 96.8 °F 21.2 °F 7% 29.93 in 10.0 mi NNW 6.9 mph - N/A   Mostly Cloudy
1:56 PM 100.4 °F 21.2 °F 6% 29.91 in 10.0 mi Variable 5.8 mph - N/A   Mostly Cloudy
2:56 PM 100.4 °F 23.0 °F 6% 29.88 in 10.0 mi Variable 4.6 mph - N/A   Mostly Cloudy
3:56 PM 104.0 °F 24.8 °F 6% 29.86 in 10.0 mi NNW 6.9 mph - N/A   Scattered Clouds
4:56 PM 104.0 °F 24.8 °F 6% 29.84 in 10.0 mi North 6.9 mph - N/A   Scattered Clouds
5:56 PM 105.8 °F 24.8 °F 6% 29.82 in 10.0 mi NNE 5.8 mph - N/A   Scattered Clouds
6:56 PM 102.2 °F 23.0 °F 6% 29.82 in 10.0 mi NNE 3.5 mph - N/A   Scattered Clouds
7:56 PM 98.6 °F 26.6 °F 8% 29.82 in 10.0 mi Calm Calm - N/A   Scattered Clouds
8:56 PM 87.8 °F 35.6 °F 16% 29.83 in 10.0 mi NW 3.5 mph - N/A   Scattered Clouds
9:56 PM 80.6 °F 37.4 °F 21% 29.85 in 10.0 mi NW 8.1 mph - N/A   Scattered Clouds
10:56 PM 86.0 °F 28.9 °F 13% 29.85 in 10.0 mi WNW 11.5 mph - N/A   Clear
11:56 PM 79.0 °F 32.0 °F 18% 29.86 in 10.0 mi NE 3.5 mph - N/A   Clear